Flag for Brazil Weather past 2 weeks in Salvador, Bahia, Brazil

Now
84 °F

Scattered clouds.


Feels Like: 91 °F
Forecast: 77 / 84 °F
Wind: 9 mph from East

Location: Salvador Aeroporto

Current Time: Apr 25, 2015 at 4:55:41 PM

Latest Report: Apr 25, 2015 at 4:00 PM


Visibility: N/A

Pressure: 29.89 "Hg

Humidity: 70%

Dew point: 73 °F

Location of SalvadorLocation

Historic Weather in Salvador — Graph

°F

Salvador temperature yesterday

Maximum temperature yesterday: 86 °F (at 12:00 PM)
Minimum temperature yesterday: 75 °F (at 2:00 AM)
Average temperature yesterday: 80 °F

Past Weeks' High & Low Weather Summary

 TemperatureHumidityPressure
High88 °F (Apr 21, 10:00 AM)100% (Apr 15, 3:00 AM)30.04 "Hg (Apr 15, 3:00 AM)
Low75 °F (Apr 10, 7:00 PM)55% (Apr 11, 2:00 PM)29.83 "Hg (Apr 19, 3:00 PM)
Average82 °F73%29.93 "Hg
* Reported Apr 10 3:00 PM — Apr 25 3:00 PM, Salvador, Weather by CustomWeather, © 2015

Note: Actual official high and low records may vary slightly from our data, if they occured in-between our weather recording intervals... More about our weather records

Advertising

Salvador weather history for previous 24 hours

 ConditionsComfort  
Time TempWeatherWind HumidityBarometerVisibility
3:00 PM
Sat, Apr 25
84 °FScattered clouds.8 mph70%29.89 "HgN/A
2:00 PM84 °FScattered clouds.5 mph70%29.92 "HgN/A
1:00 PM86 °FScattered showers. Broken clouds.5 mph66%29.92 "Hg5 mi
12:00 PM82 °FScattered showers. Broken clouds.6 mph70%29.95 "Hg5 mi
11:00 AM84 °FBroken clouds.8 mph70%29.98 "Hg4 mi
10:00 AM84 °FScattered showers. Passing clouds.9 mph66%30.01 "HgN/A
9:00 AM82 °FScattered clouds.8 mph70%30.01 "HgN/A
8:00 AM82 °FScattered clouds.3 mph74%29.98 "HgN/A
7:00 AM77 °FScattered showers. Scattered clouds.No wind89%29.98 "HgN/A
6:00 AM75 °FScattered clouds.3 mph89%29.95 "HgN/A
5:00 AM77 °FPassing clouds.3 mph83%29.95 "HgN/A
4:00 AM77 °FPassing clouds.2 mph89%29.95 "HgN/A
3:00 AM79 °FPassing clouds.No wind84%29.95 "HgN/A
2:00 AM81 °FPassing clouds.3 mph79%29.95 "HgN/A
1:00 AM81 °FPassing clouds.5 mph79%29.95 "HgN/A
12:00 AM81 °FPassing clouds.3 mph79%29.98 "HgN/A
11:00 PM
Fri, Apr 24
81 °FPassing clouds.5 mph79%30.01 "HgN/A
10:00 PM81 °FPassing clouds.9 mph79%30.01 "HgN/A
9:00 PM81 °FPassing clouds.6 mph79%30.01 "HgN/A
8:00 PM81 °FPassing clouds.6 mph79%29.98 "HgN/A
7:00 PM81 °FPassing clouds.7 mph79%29.95 "HgN/A
6:00 PM81 °FPassing clouds.7 mph74%29.95 "HgN/A
5:00 PM81 °FPassing clouds.7 mph74%29.95 "HgN/A
4:00 PM81 °FScattered clouds.5 mph79%29.92 "HgN/A
Weather by CustomWeather, © 2015

See weather overviewHow to use our weather pages